Year,Month,Day,Hour,Minute,Value (Times are PST for temperature in C)
2007,07,01,00,00,11.40
2007,07,01,00,01,11.40
2007,07,01,00,02,11.40
2007,07,01,00,03,11.30
2007,07,01,00,04,11.30
2007,07,01,00,05,11.30
2007,07,01,00,06,11.30
2007,07,01,00,07,11.30
2007,07,01,00,08,11.30
2007,07,01,00,09,11.30
2007,07,01,00,10,11.30
2007,07,01,00,11,11.30
2007,07,01,00,12,11.30
2007,07,01,00,13,11.20
2007,07,01,00,14,11.20
2007,07,01,00,15,11.20
2007,07,01,00,16,11.20
2007,07,01,00,17,11.20
2007,07,01,00,18,11.20
2007,07,01,00,19,11.20
2007,07,01,00,20,11.20
2007,07,01,00,21,11.20
2007,07,01,00,22,11.20
2007,07,01,00,23,11.20
2007,07,01,00,24,11.20
2007,07,01,00,25,11.20
2007,07,01,00,26,11.20
2007,07,01,00,27,11.30
2007,07,01,00,28,11.30
2007,07,01,00,29,11.30
2007,07,01,00,30,11.30
2007,07,01,00,31,11.40
2007,07,01,00,32,11.40
2007,07,01,00,33,11.40
2007,07,01,00,34,11.40
2007,07,01,00,35,11.40
2007,07,01,00,36,11.40
2007,07,01,00,37,11.40
2007,07,01,00,38,11.40
2007,07,01,00,39,11.40
2007,07,01,00,40,11.40
2007,07,01,00,41,11.40
2007,07,01,00,42,11.40
2007,07,01,00,43,11.40
2007,07,01,00,44,11.40
2007,07,01,00,45,11.40
2007,07,01,00,46,11.40
2007,07,01,00,47,11.40
2007,07,01,00,48,11.40
2007,07,01,00,49,11.40
2007,07,01,00,50,11.40
2007,07,01,00,51,11.40
2007,07,01,00,52,11.40
2007,07,01,00,53,11.30
2007,07,01,00,54,11.30
2007,07,01,00,55,11.30
2007,07,01,00,56,11.30
2007,07,01,00,57,11.30
2007,07,01,00,58,11.20
2007,07,01,00,59,11.20
2007,07,01,01,00,11.20
2007,07,01,01,01,11.20
2007,07,01,01,02,11.20
2007,07,01,01,03,11.10
2007,07,01,01,04,11.10
2007,07,01,01,05,11.10
2007,07,01,01,06,11.10
2007,07,01,01,07,11.10
2007,07,01,01,08,11.10
2007,07,01,01,09,11.10
2007,07,01,01,10,11.10
2007,07,01,01,11,11.10
2007,07,01,01,12,11.10
2007,07,01,01,13,11.10
2007,07,01,01,14,11.10
2007,07,01,01,15,11.10
2007,07,01,01,16,11.00
2007,07,01,01,17,10.90
2007,07,01,01,18,10.90
2007,07,01,01,19,10.90
2007,07,01,01,20,10.90
2007,07,01,01,21,10.90
2007,07,01,01,22,10.90
2007,07,01,01,23,10.90
2007,07,01,01,24,10.80
2007,07,01,01,25,10.80
2007,07,01,01,26,10.80
2007,07,01,01,27,10.80
2007,07,01,01,28,10.80
2007,07,01,01,29,10.70
2007,07,01,01,30,10.70
2007,07,01,01,31,10.70
2007,07,01,01,32,10.70
2007,07,01,01,33,10.70
2007,07,01,01,34,10.70
2007,07,01,01,35,10.70
2007,07,01,01,36,10.70
2007,07,01,01,37,10.70
2007,07,01,01,38,10.70
2007,07,01,01,39,10.70
2007,07,01,01,40,10.70
2007,07,01,01,41,10.70
2007,07,01,01,42,10.70
2007,07,01,01,43,10.70
2007,07,01,01,44,10.70
2007,07,01,01,45,10.70
2007,07,01,01,46,10.70
2007,07,01,01,47,10.70
2007,07,01,01,48,10.70
2007,07,01,01,49,10.70
2007,07,01,01,50,10.70
2007,07,01,01,51,10.70
2007,07,01,01,52,10.70
2007,07,01,01,53,10.70
2007,07,01,01,54,10.80
2007,07,01,01,55,10.80
2007,07,01,01,56,10.80
2007,07,01,01,57,10.80
2007,07,01,01,58,10.80
2007,07,01,01,59,10.70
2007,07,01,02,00,10.70
2007,07,01,02,01,10.70
2007,07,01,02,02,10.70
2007,07,01,02,03,10.70
2007,07,01,02,04,10.70
2007,07,01,02,05,10.70
2007,07,01,02,06,10.70
2007,07,01,02,07,10.70
2007,07,01,02,08,10.70
2007,07,01,02,09,10.70
2007,07,01,02,10,10.70
2007,07,01,02,11,10.70
2007,07,01,02,12,10.70
2007,07,01,02,13,10.70
2007,07,01,02,14,10.70
2007,07,01,02,15,10.70
2007,07,01,02,16,10.70
2007,07,01,02,17,10.70
2007,07,01,02,18,10.70
2007,07,01,02,19,10.60
2007,07,01,02,20,10.60
2007,07,01,02,21,10.60
2007,07,01,02,22,10.60
2007,07,01,02,23,10.60
2007,07,01,02,24,10.60
2007,07,01,02,25,10.60
2007,07,01,02,26,10.60
2007,07,01,02,27,10.60
2007,07,01,02,28,10.60
2007,07,01,02,29,10.60
2007,07,01,02,30,10.50
2007,07,01,02,31,10.40
2007,07,01,02,32,10.40
2007,07,01,02,33,10.40
2007,07,01,02,34,10.40
2007,07,01,02,35,10.40
2007,07,01,02,36,10.40
2007,07,01,02,37,10.40
2007,07,01,02,38,10.40
2007,07,01,02,39,10.40
2007,07,01,02,40,10.40
2007,07,01,02,41,10.40
2007,07,01,02,42,10.40
2007,07,01,02,43,10.40
2007,07,01,02,44,10.40
2007,07,01,02,45,10.40
2007,07,01,02,46,10.40
2007,07,01,02,47,10.40
2007,07,01,02,48,10.40
2007,07,01,02,49,10.40
2007,07,01,02,50,10.40
2007,07,01,02,51,10.40
2007,07,01,02,52,10.30
2007,07,01,02,53,10.30
2007,07,01,02,54,10.30
2007,07,01,02,55,10.30
2007,07,01,02,56,10.30
2007,07,01,02,57,10.30
2007,07,01,02,58,10.30
2007,07,01,02,59,10.30
2007,07,01,03,00,10.30
2007,07,01,03,01,10.30
2007,07,01,03,02,10.30
2007,07,01,03,03,10.30
2007,07,01,03,04,10.30
2007,07,01,03,05,10.30
2007,07,01,03,06,10.30
2007,07,01,03,07,10.30
2007,07,01,03,08,10.20
2007,07,01,03,09,10.20
2007,07,01,03,10,10.20
2007,07,01,03,11,10.20
2007,07,01,03,12,10.20
2007,07,01,03,13,10.20
2007,07,01,03,14,10.20
2007,07,01,03,15,10.20
2007,07,01,03,16,10.20
2007,07,01,03,17,10.20
2007,07,01,03,18,10.20
2007,07,01,03,19,10.20
2007,07,01,03,20,10.20
2007,07,01,03,21,10.20
2007,07,01,03,22,10.20
2007,07,01,03,23,10.20
2007,07,01,03,24,10.20
2007,07,01,03,25,10.20
2007,07,01,03,26,10.20
2007,07,01,03,27,10.20
2007,07,01,03,28,10.20
2007,07,01,03,29,10.20
2007,07,01,03,30,10.20
2007,07,01,03,31,10.20
2007,07,01,03,32,10.20
2007,07,01,03,33,10.20
2007,07,01,03,34,10.30
2007,07,01,03,35,10.30
2007,07,01,03,36,10.30
2007,07,01,03,37,10.30
2007,07,01,03,38,10.30
2007,07,01,03,39,10.30
2007,07,01,03,40,10.30
2007,07,01,03,41,10.30
2007,07,01,03,42,10.30
2007,07,01,03,43,10.40
2007,07,01,03,44,10.40
2007,07,01,03,45,10.40
2007,07,01,03,46,10.40
2007,07,01,03,47,10.40
2007,07,01,03,48,10.40
2007,07,01,03,49,10.40
2007,07,01,03,50,10.40
2007,07,01,03,51,10.40
2007,07,01,03,52,10.40
2007,07,01,03,53,10.40
2007,07,01,03,54,10.40
2007,07,01,03,55,10.40
2007,07,01,03,56,10.40
2007,07,01,03,57,10.40
2007,07,01,03,58,10.40
2007,07,01,03,59,10.40
2007,07,01,04,00,10.40
2007,07,01,04,01,10.40
2007,07,01,04,02,10.40
2007,07,01,04,03,10.40
2007,07,01,04,04,10.40
2007,07,01,04,05,10.40
2007,07,01,04,06,10.40
2007,07,01,04,07,10.40
2007,07,01,04,08,10.40
2007,07,01,04,09,10.40
2007,07,01,04,10,10.40
2007,07,01,04,11,10.40
2007,07,01,04,12,10.40
2007,07,01,04,13,10.40
2007,07,01,04,14,10.40
2007,07,01,04,15,10.40
2007,07,01,04,16,10.40
2007,07,01,04,17,10.40
2007,07,01,04,18,10.40
2007,07,01,04,19,10.30
2007,07,01,04,20,10.30
2007,07,01,04,21,10.30
2007,07,01,04,22,10.30
2007,07,01,04,23,10.30
2007,07,01,04,24,10.30
2007,07,01,04,25,10.30
2007,07,01,04,26,10.20
2007,07,01,04,27,10.20
2007,07,01,04,28,10.20
2007,07,01,04,29,10.20
2007,07,01,04,30,10.20
2007,07,01,04,31,10.20
2007,07,01,04,32,10.20
2007,07,01,04,33,10.20
2007,07,01,04,34,10.20
2007,07,01,04,35,10.20
2007,07,01,04,36,10.20
2007,07,01,04,37,10.20
2007,07,01,04,38,10.20
2007,07,01,04,39,10.10
2007,07,01,04,40,10.10
2007,07,01,04,41,10.10
2007,07,01,04,42,10.10
2007,07,01,04,43,10.10
2007,07,01,04,44,10.10
2007,07,01,04,45,10.10
2007,07,01,04,46,10.10
2007,07,01,04,47,10.10
2007,07,01,04,48,10.10
2007,07,01,04,49,10.10
2007,07,01,04,50,10.10
2007,07,01,04,51,10.10
2007,07,01,04,52,10.10
2007,07,01,04,53,10.10
2007,07,01,04,54,10.10
2007,07,01,04,55,10.10
2007,07,01,04,56,10.10
2007,07,01,04,57,10.10
2007,07,01,04,58,10.10
2007,07,01,04,59,10.10
2007,07,01,05,00,10.10
2007,07,01,05,01,10.10
2007,07,01,05,02,10.10
2007,07,01,05,03,10.10
2007,07,01,05,04,10.10
2007,07,01,05,05,10.10
2007,07,01,05,06,10.10
2007,07,01,05,07,10.10
2007,07,01,05,08,10.10
2007,07,01,05,09,10.10
2007,07,01,05,10,10.10
2007,07,01,05,11,10.10
2007,07,01,05,12,10.10
2007,07,01,05,13,10.10
2007,07,01,05,14,10.10
2007,07,01,05,15,10.10
2007,07,01,05,16,10.10
2007,07,01,05,17,10.10
2007,07,01,05,18,10.20
2007,07,01,05,19,10.20
2007,07,01,05,20,10.20
2007,07,01,05,21,10.20
2007,07,01,05,22,10.20
2007,07,01,05,23,10.20
2007,07,01,05,24,10.20
2007,07,01,05,25,10.20
2007,07,01,05,26,10.20
2007,07,01,05,27,10.20
2007,07,01,05,28,10.30
2007,07,01,05,29,10.30
2007,07,01,05,30,10.30
2007,07,01,05,31,10.30
2007,07,01,05,32,10.30
2007,07,01,05,33,10.30
2007,07,01,05,34,10.30
2007,07,01,05,35,10.30
2007,07,01,05,36,10.30
2007,07,01,05,37,10.30
2007,07,01,05,38,10.40
2007,07,01,05,39,10.40
2007,07,01,05,40,10.40
2007,07,01,05,41,10.40
2007,07,01,05,42,10.40
2007,07,01,05,43,10.40
2007,07,01,05,44,10.40
2007,07,01,05,45,10.40
2007,07,01,05,46,10.40
2007,07,01,05,47,10.40
2007,07,01,05,48,10.40
2007,07,01,05,49,10.40
2007,07,01,05,50,10.40
2007,07,01,05,51,10.40
2007,07,01,05,52,10.40
2007,07,01,05,53,10.40
2007,07,01,05,54,10.40
2007,07,01,05,55,10.50
2007,07,01,05,56,10.60
2007,07,01,05,57,10.60
2007,07,01,05,58,10.60
2007,07,01,05,59,10.60
2007,07,01,06,00,10.60
2007,07,01,06,01,10.60
2007,07,01,06,02,10.60
2007,07,01,06,03,10.60
2007,07,01,06,04,10.70
2007,07,01,06,05,10.70
2007,07,01,06,06,10.70
2007,07,01,06,07,10.70
2007,07,01,06,08,10.80
2007,07,01,06,09,10.80
2007,07,01,06,10,10.80
2007,07,01,06,11,10.90
2007,07,01,06,12,10.90
2007,07,01,06,13,10.90
2007,07,01,06,14,10.90
2007,07,01,06,15,10.90
2007,07,01,06,16,11.00
2007,07,01,06,17,11.10
2007,07,01,06,18,11.10
2007,07,01,06,19,11.10
2007,07,01,06,20,11.10
2007,07,01,06,21,11.10
2007,07,01,06,22,11.10
2007,07,01,06,23,11.10
2007,07,01,06,24,11.10
2007,07,01,06,25,11.20
2007,07,01,06,26,11.20
2007,07,01,06,27,11.20
2007,07,01,06,28,11.20
2007,07,01,06,29,11.20
2007,07,01,06,30,11.20
2007,07,01,06,31,11.20
2007,07,01,06,32,11.20
2007,07,01,06,33,11.20
2007,07,01,06,34,11.20
2007,07,01,06,35,11.20
2007,07,01,06,36,11.20
2007,07,01,06,37,11.20
2007,07,01,06,38,11.20
2007,07,01,06,39,11.20
2007,07,01,06,40,11.20
2007,07,01,06,41,11.20
2007,07,01,06,42,11.20
2007,07,01,06,43,11.20
2007,07,01,06,44,11.20
2007,07,01,06,45,11.20
2007,07,01,06,46,11.20
2007,07,01,06,47,11.20
2007,07,01,06,48,11.20
2007,07,01,06,49,11.20
2007,07,01,06,50,11.20
2007,07,01,06,51,11.20
2007,07,01,06,52,11.20
2007,07,01,06,53,11.30
2007,07,01,06,54,11.30
2007,07,01,06,55,11.30
2007,07,01,06,56,11.30
2007,07,01,06,57,11.40
2007,07,01,06,58,11.40
2007,07,01,06,59,11.40
2007,07,01,07,00,11.40
2007,07,01,07,01,11.40
2007,07,01,07,02,11.50
2007,07,01,07,03,11.60
2007,07,01,07,04,11.60
2007,07,01,07,05,11.60
2007,07,01,07,06,11.60
2007,07,01,07,07,11.60
2007,07,01,07,08,11.60
2007,07,01,07,09,11.60
2007,07,01,07,10,11.70
2007,07,01,07,11,11.70
2007,07,01,07,12,11.80
2007,07,01,07,13,11.80
2007,07,01,07,14,11.80
2007,07,01,07,15,11.80
2007,07,01,07,16,11.80
2007,07,01,07,17,11.80
2007,07,01,07,18,11.80
2007,07,01,07,19,11.80
2007,07,01,07,20,11.90
2007,07,01,07,21,11.90
2007,07,01,07,22,11.90
2007,07,01,07,23,11.90
2007,07,01,07,24,11.90
2007,07,01,07,25,12.00
2007,07,01,07,26,12.00
2007,07,01,07,27,12.00
2007,07,01,07,28,12.00
2007,07,01,07,29,12.10
2007,07,01,07,30,12.10
2007,07,01,07,31,12.10
2007,07,01,07,32,12.10
2007,07,01,07,33,12.20
2007,07,01,07,34,12.20
2007,07,01,07,35,12.20
2007,07,01,07,36,12.20
2007,07,01,07,37,12.30
2007,07,01,07,38,12.30
2007,07,01,07,39,12.30
2007,07,01,07,40,12.30
2007,07,01,07,41,12.30
2007,07,01,07,42,12.30
2007,07,01,07,43,12.30
2007,07,01,07,44,12.40
2007,07,01,07,45,12.40
2007,07,01,07,46,12.40
2007,07,01,07,47,12.40
2007,07,01,07,48,12.40
2007,07,01,07,49,12.50
2007,07,01,07,50,12.50
2007,07,01,07,51,12.50
2007,07,01,07,52,12.60
2007,07,01,07,53,12.60
2007,07,01,07,54,12.60
2007,07,01,07,55,12.70
2007,07,01,07,56,12.70
2007,07,01,07,57,12.70
2007,07,01,07,58,12.80
2007,07,01,07,59,12.80
2007,07,01,08,00,12.80
2007,07,01,08,01,12.80
2007,07,01,08,02,12.90
2007,07,01,08,03,12.90
2007,07,01,08,04,13.00
2007,07,01,08,05,13.00
2007,07,01,08,06,13.00
2007,07,01,08,07,13.10
2007,07,01,08,08,13.10
2007,07,01,08,09,13.10
2007,07,01,08,10,13.20
2007,07,01,08,11,13.20
2007,07,01,08,12,13.30
2007,07,01,08,13,13.30
2007,07,01,08,14,13.30
2007,07,01,08,15,13.30
2007,07,01,08,16,13.40
2007,07,01,08,17,13.40
2007,07,01,08,18,13.40
2007,07,01,08,19,13.50
2007,07,01,08,20,13.50
2007,07,01,08,21,13.60
2007,07,01,08,22,13.60
2007,07,01,08,23,13.60
2007,07,01,08,24,13.70
2007,07,01,08,25,13.70
2007,07,01,08,26,13.70
2007,07,01,08,27,13.80
2007,07,01,08,28,13.80
2007,07,01,08,29,13.80
2007,07,01,08,30,13.90
2007,07,01,08,31,13.90
2007,07,01,08,32,13.90
2007,07,01,08,33,14.00
2007,07,01,08,34,14.00
2007,07,01,08,35,14.00
2007,07,01,08,36,14.10
2007,07,01,08,37,14.10
2007,07,01,08,38,14.20
2007,07,01,08,39,14.20
2007,07,01,08,40,14.30
2007,07,01,08,41,14.30
2007,07,01,08,42,14.40
2007,07,01,08,43,14.50
2007,07,01,08,44,14.50
2007,07,01,08,45,14.60
2007,07,01,08,46,14.60
2007,07,01,08,47,14.60
2007,07,01,08,48,14.70
2007,07,01,08,49,14.70
2007,07,01,08,50,14.70
2007,07,01,08,51,14.70
2007,07,01,08,52,14.80
2007,07,01,08,53,14.80
2007,07,01,08,54,14.80
2007,07,01,08,55,14.80
2007,07,01,08,56,14.80
2007,07,01,08,57,14.80
2007,07,01,08,58,14.80
2007,07,01,08,59,14.80
2007,07,01,09,00,14.80
2007,07,01,09,01,14.90
2007,07,01,09,02,14.90
2007,07,01,09,03,15.00
2007,07,01,09,04,15.00
2007,07,01,09,05,15.10
2007,07,01,09,06,15.20
2007,07,01,09,07,15.20
2007,07,01,09,08,15.30
2007,07,01,09,09,15.30
2007,07,01,09,10,15.40
2007,07,01,09,11,15.50
2007,07,01,09,12,15.50
2007,07,01,09,13,15.60
2007,07,01,09,14,15.60
2007,07,01,09,15,15.70
2007,07,01,09,16,15.70
2007,07,01,09,17,15.70
2007,07,01,09,18,15.70
2007,07,01,09,19,15.70
2007,07,01,09,20,15.80
2007,07,01,09,21,15.80
2007,07,01,09,22,15.80
2007,07,01,09,23,15.80
2007,07,01,09,24,15.80
2007,07,01,09,25,15.80
2007,07,01,09,26,15.80
2007,07,01,09,27,15.80
2007,07,01,09,28,15.80
2007,07,01,09,29,15.70
2007,07,01,09,30,15.60
2007,07,01,09,31,15.60
2007,07,01,09,32,15.60
2007,07,01,09,33,15.60
2007,07,01,09,34,15.60
2007,07,01,09,35,15.70
2007,07,01,09,36,15.60
2007,07,01,09,37,15.50
2007,07,01,09,38,15.50
2007,07,01,09,39,15.50
2007,07,01,09,40,15.50
2007,07,01,09,41,15.50
2007,07,01,09,42,15.50
2007,07,01,09,43,15.50
2007,07,01,09,44,15.50
2007,07,01,09,45,15.50
2007,07,01,09,46,15.60
2007,07,01,09,47,15.60
2007,07,01,09,48,15.60
2007,07,01,09,49,15.60
2007,07,01,09,50,15.60
2007,07,01,09,51,15.60
2007,07,01,09,52,15.60
2007,07,01,09,53,15.50
2007,07,01,09,54,15.50
2007,07,01,09,55,15.50
2007,07,01,09,56,15.50
2007,07,01,09,57,15.60
2007,07,01,09,58,15.70
2007,07,01,09,59,15.70
2007,07,01,10,00,15.80
2007,07,01,10,01,15.80
2007,07,01,10,02,15.90
2007,07,01,10,03,15.90
2007,07,01,10,04,16.10
2007,07,01,10,05,16.10
2007,07,01,10,06,16.10
2007,07,01,10,07,16.00
2007,07,01,10,08,15.90
2007,07,01,10,09,15.90
2007,07,01,10,10,15.80
2007,07,01,10,11,15.80
2007,07,01,10,12,15.80
2007,07,01,10,13,15.80
2007,07,01,10,14,15.90
2007,07,01,10,15,15.90
2007,07,01,10,16,15.90
2007,07,01,10,17,15.90
2007,07,01,10,18,15.90
2007,07,01,10,19,16.00
2007,07,01,10,20,16.10
2007,07,01,10,21,16.00
2007,07,01,10,22,15.90
2007,07,01,10,23,15.90
2007,07,01,10,24,15.90
2007,07,01,10,25,15.90
2007,07,01,10,26,15.80
2007,07,01,10,27,15.80
2007,07,01,10,28,15.80
2007,07,01,10,29,15.80
2007,07,01,10,30,15.80
2007,07,01,10,31,15.90
2007,07,01,10,32,16.10
2007,07,01,10,33,16.10
2007,07,01,10,34,16.20
2007,07,01,10,35,16.30
2007,07,01,10,36,16.40
2007,07,01,10,37,16.50
2007,07,01,10,38,16.70
2007,07,01,10,39,16.70
2007,07,01,10,40,16.70
2007,07,01,10,41,16.80
2007,07,01,10,42,16.90
2007,07,01,10,43,17.00
2007,07,01,10,44,17.10
2007,07,01,10,45,17.30
2007,07,01,10,46,17.30
2007,07,01,10,47,17.40
2007,07,01,10,48,17.50
2007,07,01,10,49,17.50
2007,07,01,10,50,17.60
2007,07,01,10,51,17.70
2007,07,01,10,52,17.60
2007,07,01,10,53,17.60
2007,07,01,10,54,17.60
2007,07,01,10,55,17.60
2007,07,01,10,56,17.60
2007,07,01,10,57,17.60
2007,07,01,10,58,17.70
2007,07,01,10,59,17.70
2007,07,01,11,00,17.60
2007,07,01,11,01,17.60
2007,07,01,11,02,17.60
2007,07,01,11,03,17.50
2007,07,01,11,04,17.40
2007,07,01,11,05,17.40
2007,07,01,11,06,17.50
2007,07,01,11,07,17.50
2007,07,01,11,08,17.40
2007,07,01,11,09,17.40
2007,07,01,11,10,17.30
2007,07,01,11,11,17.40
2007,07,01,11,12,17.30
2007,07,01,11,13,17.30
2007,07,01,11,14,17.30
2007,07,01,11,15,17.20
2007,07,01,11,16,17.20
2007,07,01,11,17,17.20
2007,07,01,11,18,17.10
2007,07,01,11,19,17.20
2007,07,01,11,20,17.20
2007,07,01,11,21,17.30
2007,07,01,11,22,17.30
2007,07,01,11,23,17.50
2007,07,01,11,24,17.50
2007,07,01,11,25,17.70
2007,07,01,11,26,17.80
2007,07,01,11,27,17.90
2007,07,01,11,28,17.90
2007,07,01,11,29,18.00
2007,07,01,11,30,18.10
2007,07,01,11,31,18.20
2007,07,01,11,32,18.20
2007,07,01,11,33,18.20
2007,07,01,11,34,18.20
2007,07,01,11,35,18.20
2007,07,01,11,36,18.20
2007,07,01,11,37,18.20
2007,07,01,11,38,18.30
2007,07,01,11,39,18.30
2007,07,01,11,40,18.40
2007,07,01,11,41,18.50
2007,07,01,11,42,18.50
2007,07,01,11,43,18.50
2007,07,01,11,44,18.60
2007,07,01,11,45,18.60
2007,07,01,11,46,18.70
2007,07,01,11,47,18.70
2007,07,01,11,48,18.60
2007,07,01,11,49,18.60
2007,07,01,11,50,18.50
2007,07,01,11,51,18.50
2007,07,01,11,52,18.50
2007,07,01,11,53,18.50
2007,07,01,11,54,18.40
2007,07,01,11,55,18.40
2007,07,01,11,56,18.30
2007,07,01,11,57,18.20
2007,07,01,11,58,18.20
2007,07,01,11,59,18.20
2007,07,01,12,00,18.20
2007,07,01,12,01,18.20
2007,07,01,12,02,18.30
2007,07,01,12,03,18.30
2007,07,01,12,04,18.40
2007,07,01,12,05,18.50
2007,07,01,12,06,18.50
2007,07,01,12,07,18.50
2007,07,01,12,08,18.50
2007,07,01,12,09,18.40
2007,07,01,12,10,18.50
2007,07,01,12,11,18.50
2007,07,01,12,12,18.60
2007,07,01,12,13,18.70
2007,07,01,12,14,18.70
2007,07,01,12,15,18.80
2007,07,01,12,16,18.90
2007,07,01,12,17,18.90
2007,07,01,12,18,18.80
2007,07,01,12,19,18.70
2007,07,01,12,20,18.80
2007,07,01,12,21,18.80
2007,07,01,12,22,18.80
2007,07,01,12,23,18.70
2007,07,01,12,24,18.70
2007,07,01,12,25,18.80
2007,07,01,12,26,18.80
2007,07,01,12,27,18.90
2007,07,01,12,28,19.00
2007,07,01,12,29,19.10
2007,07,01,12,30,19.10
2007,07,01,12,31,19.10
2007,07,01,12,32,19.10
2007,07,01,12,33,19.10
2007,07,01,12,34,18.90
2007,07,01,12,35,18.90
2007,07,01,12,36,18.80
2007,07,01,12,37,18.80
2007,07,01,12,38,18.80
2007,07,01,12,39,18.80
2007,07,01,12,40,18.80
2007,07,01,12,41,18.80
2007,07,01,12,42,18.80
2007,07,01,12,43,18.70
2007,07,01,12,44,18.60
2007,07,01,12,45,18.60
2007,07,01,12,46,18.60
2007,07,01,12,47,18.60
2007,07,01,12,48,18.50
2007,07,01,12,49,18.50
2007,07,01,12,50,18.60
2007,07,01,12,51,18.60
2007,07,01,12,52,18.60
2007,07,01,12,53,18.70
2007,07,01,12,54,18.80
2007,07,01,12,55,18.80
2007,07,01,12,56,18.90
2007,07,01,12,57,18.90
2007,07,01,12,58,18.90
2007,07,01,12,59,18.90
2007,07,01,13,00,18.90
2007,07,01,13,01,19.10
2007,07,01,13,02,19.10
2007,07,01,13,03,19.10
2007,07,01,13,04,19.10
2007,07,01,13,05,19.20
2007,07,01,13,06,19.30
2007,07,01,13,07,19.40
2007,07,01,13,08,19.60
2007,07,01,13,09,19.60
2007,07,01,13,10,19.70
2007,07,01,13,11,19.80
2007,07,01,13,12,19.90
2007,07,01,13,13,20.00
2007,07,01,13,14,20.20
2007,07,01,13,15,20.20
2007,07,01,13,16,20.30
2007,07,01,13,17,20.30
2007,07,01,13,18,20.30
2007,07,01,13,19,20.30
2007,07,01,13,20,20.30
2007,07,01,13,21,20.30
2007,07,01,13,22,20.30
2007,07,01,13,23,20.30
2007,07,01,13,24,20.40
2007,07,01,13,25,20.30
2007,07,01,13,26,20.20
2007,07,01,13,27,20.10
2007,07,01,13,28,20.10
2007,07,01,13,29,20.00
2007,07,01,13,30,19.90
2007,07,01,13,31,19.90
2007,07,01,13,32,19.90
2007,07,01,13,33,19.90
2007,07,01,13,34,20.10
2007,07,01,13,35,20.10
2007,07,01,13,36,20.10
2007,07,01,13,37,20.10
2007,07,01,13,38,20.10
2007,07,01,13,39,20.10
2007,07,01,13,40,20.10
2007,07,01,13,41,20.00
2007,07,01,13,42,20.00
2007,07,01,13,43,20.10
2007,07,01,13,44,20.20
2007,07,01,13,45,20.20
2007,07,01,13,46,20.20
2007,07,01,13,47,20.20
2007,07,01,13,48,20.20
2007,07,01,13,49,20.20
2007,07,01,13,50,20.20
2007,07,01,13,51,20.20
2007,07,01,13,52,20.20
2007,07,01,13,53,20.20
2007,07,01,13,54,20.10
2007,07,01,13,55,20.20
2007,07,01,13,56,20.20
2007,07,01,13,57,20.20
2007,07,01,13,58,20.20
2007,07,01,13,59,20.20
2007,07,01,14,00,20.30
2007,07,01,14,01,20.30
2007,07,01,14,02,20.30
2007,07,01,14,03,20.30
2007,07,01,14,04,20.40
2007,07,01,14,05,20.40
2007,07,01,14,06,20.40
2007,07,01,14,07,20.50
2007,07,01,14,08,20.60
2007,07,01,14,09,20.70
2007,07,01,14,10,20.70
2007,07,01,14,11,20.80
2007,07,01,14,12,20.80
2007,07,01,14,13,20.70
2007,07,01,14,14,20.70
2007,07,01,14,15,20.70
2007,07,01,14,16,20.60
2007,07,01,14,17,20.50
2007,07,01,14,18,20.30
2007,07,01,14,19,20.20
2007,07,01,14,20,20.10
2007,07,01,14,21,19.90
2007,07,01,14,22,19.90
2007,07,01,14,23,19.90
2007,07,01,14,24,19.90
2007,07,01,14,25,19.90
2007,07,01,14,26,19.90
2007,07,01,14,27,19.90
2007,07,01,14,28,19.90
2007,07,01,14,29,19.90
2007,07,01,14,30,19.90
2007,07,01,14,31,19.90
2007,07,01,14,32,19.90
2007,07,01,14,33,19.90
2007,07,01,14,34,19.80
2007,07,01,14,35,19.80
2007,07,01,14,36,19.80
2007,07,01,14,37,19.80
2007,07,01,14,38,19.80
2007,07,01,14,39,19.80
2007,07,01,14,40,19.70
2007,07,01,14,41,19.70
2007,07,01,14,42,19.70
2007,07,01,14,43,19.60
2007,07,01,14,44,19.60
2007,07,01,14,45,19.60
2007,07,01,14,46,19.60
2007,07,01,14,47,19.60
2007,07,01,14,48,19.70
2007,07,01,14,49,19.70
2007,07,01,14,50,19.70
2007,07,01,14,51,19.70
2007,07,01,14,52,19.70
2007,07,01,14,53,19.70
2007,07,01,14,54,19.70
2007,07,01,14,55,19.70
2007,07,01,14,56,19.60
2007,07,01,14,57,19.50
2007,07,01,14,58,19.50
2007,07,01,14,59,19.40
2007,07,01,15,00,19.40
2007,07,01,15,01,19.40
2007,07,01,15,02,19.40
2007,07,01,15,03,19.40
2007,07,01,15,04,19.40
2007,07,01,15,05,19.50
2007,07,01,15,06,19.50
2007,07,01,15,07,19.60
2007,07,01,15,08,19.60
2007,07,01,15,09,19.70
2007,07,01,15,10,19.80
2007,07,01,15,11,19.80
2007,07,01,15,12,19.90
2007,07,01,15,13,19.90
2007,07,01,15,14,20.00
2007,07,01,15,15,20.10
2007,07,01,15,16,20.10
2007,07,01,15,17,20.20
2007,07,01,15,18,20.10
2007,07,01,15,19,20.10
2007,07,01,15,20,20.00
2007,07,01,15,21,19.90
2007,07,01,15,22,19.90
2007,07,01,15,23,20.00
2007,07,01,15,24,20.10
2007,07,01,15,25,20.10
2007,07,01,15,26,20.10
2007,07,01,15,27,20.10
2007,07,01,15,28,20.10
2007,07,01,15,29,20.10
2007,07,01,15,30,20.10
2007,07,01,15,31,20.10
2007,07,01,15,32,20.20
2007,07,01,15,33,20.20
2007,07,01,15,34,20.20
2007,07,01,15,35,20.20
2007,07,01,15,36,20.30
2007,07,01,15,37,20.30
2007,07,01,15,38,20.40
2007,07,01,15,39,20.50
2007,07,01,15,40,20.50
2007,07,01,15,41,20.50
2007,07,01,15,42,20.50
2007,07,01,15,43,20.50
2007,07,01,15,44,20.40
2007,07,01,15,45,20.40
2007,07,01,15,46,20.40
2007,07,01,15,47,20.40
2007,07,01,15,48,20.40
2007,07,01,15,49,20.50
2007,07,01,15,50,20.50
2007,07,01,15,51,20.50
2007,07,01,15,52,20.50
2007,07,01,15,53,20.60
2007,07,01,15,54,20.60
2007,07,01,15,55,20.60
2007,07,01,15,56,20.70
2007,07,01,15,57,20.70
2007,07,01,15,58,20.70
2007,07,01,15,59,20.80
2007,07,01,16,00,20.80
2007,07,01,16,01,20.90
2007,07,01,16,02,20.80
2007,07,01,16,03,20.80
2007,07,01,16,04,20.80
2007,07,01,16,05,20.80
2007,07,01,16,06,20.80
2007,07,01,16,07,20.80
2007,07,01,16,08,20.80
2007,07,01,16,09,20.80
2007,07,01,16,10,20.80
2007,07,01,16,11,20.80
2007,07,01,16,12,20.70
2007,07,01,16,13,20.70
2007,07,01,16,14,20.60
2007,07,01,16,15,20.50
2007,07,01,16,16,20.50
2007,07,01,16,17,20.40
2007,07,01,16,18,20.40
2007,07,01,16,19,20.30
2007,07,01,16,20,20.30
2007,07,01,16,21,20.30
2007,07,01,16,22,20.30
2007,07,01,16,23,20.20
2007,07,01,16,24,20.20
2007,07,01,16,25,20.20
2007,07,01,16,26,20.10
2007,07,01,16,27,20.00
2007,07,01,16,28,19.90
2007,07,01,16,29,19.90
2007,07,01,16,30,19.80
2007,07,01,16,31,19.80
2007,07,01,16,32,19.70
2007,07,01,16,33,19.70
2007,07,01,16,34,19.70
2007,07,01,16,35,19.70
2007,07,01,16,36,19.60
2007,07,01,16,37,19.50
2007,07,01,16,38,19.50
2007,07,01,16,39,19.40
2007,07,01,16,40,19.40
2007,07,01,16,41,19.40
2007,07,01,16,42,19.40
2007,07,01,16,43,19.50
2007,07,01,16,44,19.50
2007,07,01,16,45,19.50
2007,07,01,16,46,19.60
2007,07,01,16,47,19.60
2007,07,01,16,48,19.60
2007,07,01,16,49,19.60
2007,07,01,16,50,19.60
2007,07,01,16,51,19.60
2007,07,01,16,52,19.50
2007,07,01,16,53,19.40
2007,07,01,16,54,19.40
2007,07,01,16,55,19.30
2007,07,01,16,56,19.30
2007,07,01,16,57,19.10
2007,07,01,16,58,19.10
2007,07,01,16,59,19.10
2007,07,01,17,00,19.00
2007,07,01,17,01,18.90
2007,07,01,17,02,18.90
2007,07,01,17,03,18.90
2007,07,01,17,04,18.90
2007,07,01,17,05,19.00
2007,07,01,17,06,19.10
2007,07,01,17,07,19.10
2007,07,01,17,08,19.10
2007,07,01,17,09,19.10
2007,07,01,17,10,19.10
2007,07,01,17,11,19.20
2007,07,01,17,12,19.20
2007,07,01,17,13,19.20
2007,07,01,17,14,19.30
2007,07,01,17,15,19.30
2007,07,01,17,16,19.30
2007,07,01,17,17,19.30
2007,07,01,17,18,19.30
2007,07,01,17,19,19.40